Voltar ao catálogo

COSMOS 1275 DEB

LostPO
NORAD 42131·DEBRIS·🇷🇺 Russia

Lançado Jun 4, 1981 de Plesetsk Cosmodrome

Loading…

Próximas Passagens (próximas 24 horas)

TLE

ObsoletoSource: Space-Track

Época: Oct 27, 2024, 07:15 UTC

1 42131U 81053QT  24301.30213918  .00033845  00000-0  98006-2 0  9993
2 42131  82.8749 135.1696 0019025 318.6456 221.6378 14.44175064568411

Acompanhe COSMOS 1275 DEB em tempo real com AllMySat

Download on the App Store